Tracking 33744 objects as of 12-Apr-2026
HD Live streaming from Space Station
objects crossing your sky now

RASSVET-2-1

Track RASSVET-2-1 now!
10-day predictions
RASSVET-2-1 is classified as:


NORAD ID: 59779
Int'l Code: 2024-092G
Perigee: 783.8 km
Apogee: 801.8 km
Inclination: 98.7 °
Period: 100.6 minutes
Semi major axis: 7163 km
RCS: Unknown
Launch date: May 16, 2024
Source: Commonwealth of Independent States (former USSR) (CIS)
Launch site: PLESETSK MISSILE AND SPACE COMPLEX (PKMTR)

Uplink (MHz):
Downlink (MHz):
Beacon (MHz):
Mode:
Call sign:
Status: Unknown

Your satellite tracking list
Your tracking list is empty




NASA's NSSDC Master Catalog

Two Line Element Set (TLE):
1 59779U 24092G   26101.90842366  .00000155  00000-0  74679-4 0  9990
2 59779  98.6598 221.0513 0012607  47.8693 312.3559 14.31820269 99418
Source of the keplerian elements: AFSPC